Dewpoint
68 69 70 70 70 70 69 69 69 68 68 67 66 65 63 63 62 61 59 57 56 55 53 50 50 52 57 57 57 56 54 53
67 68 69 69 69 69 68 68 68 67 67 66 64 64 63 63 61 60 58 57 55 54 52 50 50 51 57 57 58 56 54 54
67 67 68 68 68 68 68 68 67 67 66 64 63 62 62 62 60 60 58 56 55 53 50 49 49 55 57 57 55 53 54 57
66 67 66 67 67 67 67 67 66 65 64 63 61 61 60 59 60 59 58 56 54 51 49 49 43 53 56 55 54 55 56 56
66 66 66 66 66 66 66 65 64 63 62 60 60 59 59 58 58 58 57 56 52 50 49 43 41 51 53 53 54 54 55 55
66 66 66 65 65 65 65 64 63 62 60 59 59 57 57 56 56 55 55 53 50 47 45 43 43 50 53 52 52 51 51 52
65 66 66 65 65 65 64 63 62 61 59 58 58 56 55 54 54 53 52 51 48 44 42 44 46 52 52 51 50 49 49 50
66 65 65 65 65 64 63 62 61 60 59 57 57 56 54 53 52 51 50 48 46 44 44 45 47 51 51 50 49 48 48 48
65 65 65 64 64 63 63 62 61 60 59 57 56 55 54 52 51 50 49 47 43 44 45 45 47 50 49 49 48 47 46 47
65 65 65 64 63 63 62 62 61 59 59 57 56 55 54 51 50 49 47 46 42 45 44 44 45 47 47 47 46 45 45 45
65 64 64 63 63 63 62 61 61 59 59 58 56 55 53 51 49 48 45 45 43 45 44 43 43 45 45 45 44 43 43 44
65 64 64 63 63 62 62 61 60 59 58 57 54 54 53 51 49 47 44 44 44 45 43 43 43 43 43 41 41 41 42 41
64 64 64 63 63 61 61 60 59 58 56 56 53 54 53 50 48 46 44 44 44 44 42 41 41 41 39 38 38 38 39 40
63 63 64 63 62 62 61 60 60 58 56 55 53 54 52 49 47 45 44 43 43 43 41 41 40 40 38 36 35 35 36 37
62 63 63 63 62 62 61 61 60 58 54 54 53 53 51 49 46 45 43 42 43 43 42 40 39 39 38 35 33 33 33 35
60 63 62 63 62 61 60 59 58 57 53 53 53 52 50 48 46 44 42 42 42 43 42 40 39 38 37 38 36 34 31 31
59 62 62 62 61 61 60 59 58 57 53 52 52 52 50 48 46 44 42 42 42 43 42 40 39 38 37 36 35 34 32 31
59 61 61 61 61 61 60 58 57 56 53 50 51 51 50 48 47 45 43 42 41 42 43 40 39 38 38 36 34 33 31 30
60 61 61 61 61 60 60 58 57 55 52 48 50 50 49 48 47 45 44 43 43 43 43 41 39 38 38 37 35 33 32 32
59 60 60 60 60 60 59 58 56 54 52 48 49 49 49 49 47 47 45 44 44 44 43 41 39 39 39 38 35 33 32 33
Wind_Speed
19 20 20 21 23 25 24 26 28 29 28 27 25 24 24 23 22 21 20 18 17 16 15 15 17 20 23 26 24 22 18 16
19 18 21 19 20 24 24 23 26 27 27 27 26 23 22 24 23 21 20 19 17 16 15 15 18 19 25 23 23 21 18 17
21 19 19 17 16 20 23 24 22 23 24 26 26 18 18 20 18 22 20 18 17 16 16 15 19 21 25 23 19 14 16 14
24 23 20 18 16 18 19 20 18 16 13 18 17 17 16 16 18 19 18 17 15 14 13 15 19 18 19 18 14 14 15 13
25 26 24 24 20 18 16 15 15 15 18 14 17 15 15 14 15 15 14 15 12 12 11 14 17 17 15 14 15 14 13 13
26 27 25 24 20 21 19 17 17 17 17 18 19 14 14 16 15 17 17 15 16 15 14 14 13 17 18 16 15 14 14 14
29 28 30 26 23 21 19 18 18 18 18 18 20 18 17 16 15 16 15 15 16 17 16 11 16 19 17 18 15 15 16 14
30 33 30 28 27 24 21 17 16 17 18 19 20 18 17 18 17 16 16 16 14 15 14 15 16 19 18 17 16 15 16 16
34 34 31 29 28 24 22 20 17 18 18 22 23 21 19 17 17 18 17 16 17 14 12 15 16 16 19 16 16 16 15 16
36 32 33 30 30 25 23 21 20 20 19 20 24 23 21 19 18 17 16 17 17 16 17 18 17 17 17 14 14 14 15 15
35 35 36 34 32 26 24 23 21 19 19 20 24 24 23 20 18 18 19 18 17 17 14 20 20 17 17 15 14 15 15 13
39 39 37 36 28 25 23 23 20 20 21 22 26 26 27 24 20 18 18 16 17 17 19 14 19 20 20 16 14 15 15 15
37 38 36 31 28 28 28 30 28 25 23 26 28 26 26 24 19 21 23 23 21 18 18 24 17 19 20 16 11 7 15 16
38 41 38 37 34 35 28 31 30 25 22 24 27 26 27 28 25 24 25 22 22 22 24 19 9 23 17 17 11 5 3 9
42 44 42 42 38 29 23 20 19 22 22 25 27 30 29 30 26 25 24 23 26 27 27 27 25 21 28 10 8 10 13 4
44 43 44 42 39 34 36 36 34 29 35 31 32 32 29 28 26 26 26 23 26 28 25 26 24 31 26 5 5 13 9 10
44 44 43 42 42 40 39 36 32 25 24 26 28 29 30 29 28 27 27 24 24 27 26 26 27 29 27 9 10 9 9 10
40 41 44 43 43 42 41 41 35 29 30 29 30 30 29 29 29 29 28 25 25 25 25 26 26 25 24 14 15 11 15 10
34 37 42 42 42 40 40 38 36 36 33 30 31 28 26 31 33 29 26 26 24 23 23 22 24 25 25 19 15 11 13 8
37 39 40 39 41 39 35 33 29 28 28 27 29 30 29 27 30 28 26 26 22 23 22 21 21 23 22 16 13 12 13 14
Wind_Direction
157 162 163 158 151 152 155 154 149 147 144 142 139 139 141 140 141 139 142 141 138 134 128 122 110 96 109 116 114 111 106 101
161 165 165 165 160 156 157 157 152 149 146 142 140 141 144 142 142 143 148 147 144 142 137 129 110 100 115 117 114 108 100 98
162 167 166 164 162 162 158 156 154 150 146 143 138 143 144 142 143 148 154 151 151 149 146 133 111 107 114 113 109 109 106 104
165 165 166 160 164 164 159 159 154 149 148 145 135 139 143 140 145 149 152 154 153 152 144 120 113 113 113 111 109 108 105 109
174 167 167 170 171 165 165 161 157 154 151 149 134 142 142 141 145 153 154 159 155 153 139 122 117 122 117 113 106 100 102 107
176 171 167 173 173 175 174 171 165 164 162 148 145 149 149 152 154 157 161 166 163 157 149 138 126 133 125 118 112 110 102 101
183 175 176 174 173 175 176 177 177 169 163 161 155 160 162 158 160 163 168 169 166 160 157 151 134 134 127 124 117 112 107 100
181 183 183 178 178 179 180 177 178 169 171 167 159 165 168 168 164 166 171 176 174 165 161 145 134 135 129 127 124 116 111 109
186 185 183 183 181 180 183 181 179 178 177 171 162 168 173 171 169 173 177 179 171 166 155 134 125 129 130 129 126 120 115 112
190 185 185 184 186 183 186 182 184 183 182 178 167 171 174 174 177 179 177 173 174 168 160 143 132 131 131 128 124 122 122 119
192 191 187 187 184 181 184 183 185 185 181 182 176 171 177 179 182 183 175 174 177 168 165 148 139 134 130 126 126 130 130 125
189 191 189 189 187 180 181 182 187 186 188 186 184 176 178 180 181 176 177 177 174 170 156 142 143 137 132 127 132 139 139 142
191 191 192 182 184 183 182 187 189 192 190 188 183 185 180 182 180 173 177 179 178 167 151 146 141 133 117 104 93 115 151 156
189 194 188 187 188 193 192 191 191 190 184 188 185 182 182 182 180 183 181 175 172 169 162 155 152 161 150 124 142 131 114 154
191 192 190 189 192 189 191 186 187 188 186 187 188 185 184 186 180 179 179 176 176 174 170 173 169 178 164 141 155 189 145 163
194 191 190 192 188 184 185 183 185 192 190 189 187 187 184 184 181 177 178 179 179 182 179 179 173 181 184 178 153 137 162 161
194 192 192 190 190 189 189 193 198 192 189 187 189 186 183 183 179 180 182 182 185 181 182 184 184 184 188 166 152 139 122 143
192 189 194 192 191 191 191 193 190 184 184 184 186 186 183 179 182 185 185 184 185 187 186 188 188 193 195 185 172 166 174 154
194 194 193 192 193 194 193 192 191 189 183 181 182 185 191 188 185 184 184 185 184 185 186 189 191 195 195 192 179 182 156 139
188 193 194 191 191 192 191 189 188 188 184 182 185 189 192 187 185 182 179 180 181 184 188 191 190 194 194 189 183 179 166 154